ハートレー第1彗星

100P/Hartley 1 (2003)

English version
Home page
Updated on June 29, 2003

---------------------------------------------------------------------

・ プロフィール

・ 写真集

・ 軌道要素

Epoch 2003 Aug. 29.0 TT = JDT 2452880.5  
T 2003 Aug. 18.03526 TT                                 Muraoka 
q   1.9797387            (2000.0)            P               Q
n   0.15663929     Peri.  181.53398     -0.77406810     +0.57451461
a   3.4082824      Node    37.89196     -0.57615094     -0.46509400
e   0.4191389      Incl.   25.66370     -0.26242840     -0.67351357
P   6.29
From 115 observations 1985-1997, mean residual 0".81.

・ 星図

・ 光度変化

        m1 = 4.0 + 5 logΔ + 40 log r

---------------------------------------------------------------------

軌道要素は村岡健治氏の計算によるものです。
星図は StellaNavigator Ver.2.0 for Windows (アストロアーツ 編著 / アスキー出版局刊) で作成したものです。
光度グラフはComet for Windowsで作成したものです。

---------------------------------------------------------------------

Copyright(C) Seiichi Yoshida (comet@aerith.net). All rights reserved.